When you browse on this site, cookies collect data to enhance your experience and personalize the content and advertising you see.
Visit our Privacy Policy to learn more. By continuing to use the site, you agree to this use of cookies and data.
  • In France
  • List of Countries
  • For 7 days
  • Water Temperature
  • Weather Map
  • Weather Widgets
  • user-avatar
    Login

    Hourly Weather Acuitzio del Canje

    Today, 26 February, Wednesday

    Time Temperature Precipitation Wind Pressure Humidity
    00:00 +13°C° 0 mm 1 mps 590 mmHg 64%
    01:00 +12°C° 0 mm 1 mps 590 mmHg 64%
    02:00 +12°C° 0 mm 1 mps 590 mmHg 65%
    03:00 +12°C° 0 mm 1 mps 590 mmHg 66%
    04:00 +11°C° 0 mm 1 mps 590 mmHg 68%
    05:00 +11°C° 0 mm 1 mps 590 mmHg 69%
    06:00 +12°C° 0 mm 0 mps 591 mmHg 62%
    07:00 +15°C° 0 mm 0 mps 593 mmHg 54%
    08:00 +17°C° 0 mm 0 mps 594 mmHg 47%
    09:00 +21°C° 0 mm 1 mps 595 mmHg 41%
    10:00 +23°C° 0 mm 2 mps 595 mmHg 35%
    11:00 +25°C° 0 mm 2 mps 596 mmHg 29%
    12:00 +25°C° 0 mm 3 mps 595 mmHg 27%
    13:00 +25°C° 0 mm 3 mps 594 mmHg 26%
    14:00 +25°C° 0 mm 4 mps 594 mmHg 25%
    15:00 +24°C° 0 mm 3 mps 593 mmHg 27%
    16:00 +22°C° 0 mm 3 mps 592 mmHg 29%
    17:00 +20°C° 0 mm 2 mps 592 mmHg 31%
    18:00 +18°C° 0 mm 2 mps 592 mmHg 37%
    19:00 +16°C° 0 mm 2 mps 592 mmHg 43%
    20:00 +14°C° 0 mm 1 mps 592 mmHg 48%
    21:00 +13°C° 0 mm 1 mps 592 mmHg 50%
    22:00 +13°C° 0 mm 1 mps 593 mmHg 52%
    23:00 +12°C° 0 mm 1 mps 593 mmHg 53%

    Tomorrow, 27 February, Thursday

    Time Temperature Precipitation Wind Pressure Humidity
    00:00 +11°C° 0 mm 1 mps 592 mmHg 56%
    01:00 +11°C° 0 mm 1 mps 592 mmHg 59%
    02:00 +10°C° 0 mm 1 mps 592 mmHg 61%
    03:00 +9°C° 0 mm 1 mps 591 mmHg 63%
    04:00 +9°C° 0 mm 1 mps 591 mmHg 64%
    05:00 +8°C° 0 mm 1 mps 591 mmHg 65%
    06:00 +10°C° 0 mm 1 mps 592 mmHg 58%
    07:00 +12°C° 0 mm 1 mps 594 mmHg 51%
    08:00 +14°C° 0 mm 1 mps 595 mmHg 44%
    09:00 +18°C° 0 mm 1 mps 596 mmHg 39%
    10:00 +21°C° 0 mm 1 mps 597 mmHg 33%
    11:00 +24°C° 0 mm 1 mps 598 mmHg 28%
    12:00 +24°C° 0 mm 2 mps 597 mmHg 27%
    13:00 +24°C° 0 mm 2 mps 596 mmHg 27%
    14:00 +24°C° 0 mm 3 mps 596 mmHg 26%
    15:00 +22°C° 0 mm 3 mps 595 mmHg 30%
    16:00 +21°C° 0 mm 2 mps 594 mmHg 33%
    17:00 +20°C° 0 mm 2 mps 593 mmHg 37%
    18:00 +18°C° 0 mm 2 mps 593 mmHg 44%
    19:00 +15°C° 0 mm 2 mps 593 mmHg 51%
    20:00 +13°C° 0 mm 1 mps 593 mmHg 58%
    21:00 +13°C° 0 mm 1 mps 593 mmHg 59%
    22:00 +13°C° 0 mm 1 mps 593 mmHg 61%
    23:00 +12°C° 0 mm 1 mps 593 mmHg 63%

    Day after tomorrow, 28 February, Friday

    Time Temperature Precipitation Wind Pressure Humidity
    00:00 +12°C° 0 mm 1 mps 593 mmHg 63%
    01:00 +12°C° 0 mm 1 mps 593 mmHg 63%
    02:00 +12°C° 0 mm 1 mps 593 mmHg 63%
    03:00 +11°C° 0 mm 1 mps 593 mmHg 64%
    04:00 +11°C° 0 mm 1 mps 593 mmHg 65%
    05:00 +11°C° 0 mm 1 mps 593 mmHg 66%
    06:00 +13°C° 0 mm 1 mps 594 mmHg 59%
    07:00 +15°C° 0 mm 0 mps 596 mmHg 52%
    08:00 +17°C° 0 mm 0 mps 597 mmHg 44%
    09:00 +22°C° 0 mm 1 mps 598 mmHg 38%
    10:00 +24°C° 0 mm 1 mps 598 mmHg 32%
    11:00 +26°C° 0 mm 1 mps 599 mmHg 27%
    12:00 +27°C° 0 mm 2 mps 598 mmHg 26%
    13:00 +27°C° 0 mm 2 mps 598 mmHg 26%
    14:00 +28°C° 0 mm 2 mps 597 mmHg 25%
    15:00 +26°C° 0 mm 2 mps 596 mmHg 29%
    16:00 +24°C° 0 mm 2 mps 595 mmHg 33%
    17:00 +23°C° 0 mm 2 mps 595 mmHg 36%
    18:00 +20°C° 0 mm 2 mps 594 mmHg 43%
    19:00 +17°C° 0 mm 2 mps 594 mmHg 50%
    20:00 +15°C° 0 mm 1 mps 594 mmHg 57%
    21:00 +15°C° 0 mm 1 mps 594 mmHg 59%
    22:00 +14°C° 0 mm 1 mps 594 mmHg 61%
    23:00 +14°C° 0 mm 1 mps 594 mmHg 62%

    29 February, Saturday

    Time Temperature Precipitation Wind Pressure Humidity
    00:00 +13°C° 0 mm 1 mps 594 mmHg 64%
    01:00 +13°C° 0 mm 1 mps 594 mmHg 65%
    02:00 +12°C° 0 mm 1 mps 593 mmHg 67%
    03:00 +12°C° 0 mm 1 mps 593 mmHg 69%
    04:00 +11°C° 0 mm 1 mps 593 mmHg 70%
    05:00 +11°C° 0 mm 1 mps 593 mmHg 72%
    06:00 +13°C° 0 mm 1 mps 595 mmHg 64%
    07:00 +16°C° 0 mm 1 mps 596 mmHg 57%
    08:00 +17°C° 0 mm 0 mps 597 mmHg 49%
    09:00 +21°C° 0 mm 1 mps 598 mmHg 43%
    10:00 +24°C° 0 mm 1 mps 599 mmHg 37%
    11:00 +26°C° 0 mm 1 mps 599 mmHg 30%
    12:00 +27°C° 0 mm 1 mps 598 mmHg 29%
    13:00 +27°C° 0 mm 2 mps 598 mmHg 28%
    14:00 +28°C° 0 mm 2 mps 597 mmHg 26%
    15:00 +26°C° 0 mm 2 mps 596 mmHg 30%
    16:00 +25°C° 0 mm 2 mps 595 mmHg 35%
    17:00 +23°C° 0 mm 2 mps 594 mmHg 39%
    18:00 +20°C° 0 mm 2 mps 594 mmHg 47%
    19:00 +19°C° 0 mm 1 mps 594 mmHg 56%
    20:00 +15°C° 0 mm 1 mps 593 mmHg 64%
    21:00 +15°C° 0 mm 1 mps 593 mmHg 66%
    22:00 +15°C° 0 mm 1 mps 593 mmHg 67%
    23:00 +14°C° 0 mm 1 mps 593 mmHg 68%

    1 March, Sunday

    Time Temperature Precipitation Wind Pressure Humidity
    00:00 +14°C° 0 mm 1 mps 593 mmHg 69%
    01:00 +14°C° 0 mm 1 mps 593 mmHg 70%
    02:00 +13°C° 0 mm 1 mps 592 mmHg 70%
    03:00 +13°C° 0 mm 1 mps 592 mmHg 71%
    04:00 +13°C° 0 mm 1 mps 593 mmHg 72%
    05:00 +12°C° 0 mm 1 mps 593 mmHg 73%
    06:00 +14°C° 0 mm 0 mps 594 mmHg 65%
    07:00 +16°C° 0 mm 0 mps 596 mmHg 57%
    08:00 +19°C° 0 mm 0 mps 597 mmHg 49%
    09:00 +21°C° 0 mm 0 mps 598 mmHg 42%
    10:00 +26°C° 0 mm 1 mps 598 mmHg 36%
    11:00 +28°C° 0 mm 1 mps 599 mmHg 30%
    12:00 +28°C° 0 mm 2 mps 598 mmHg 29%
    13:00 +29°C° 0 mm 2 mps 597 mmHg 28%
    14:00 +29°C° 0 mm 2 mps 596 mmHg 28%
    15:00 +27°C° 0 mm 2 mps 595 mmHg 32%
    16:00 +26°C° 0 mm 2 mps 594 mmHg 37%
    17:00 +24°C° 0 mm 2 mps 593 mmHg 42%
    18:00 +21°C° 0 mm 2 mps 593 mmHg 49%
    19:00 +19°C° 0 mm 2 mps 593 mmHg 57%
    20:00 +16°C° 0 mm 1 mps 592 mmHg 65%
    21:00 +16°C° 0 mm 1 mps 592 mmHg 66%
    22:00 +16°C° 0 mm 1 mps 593 mmHg 67%
    23:00 +15°C° 0 mm 1 mps 593 mmHg 69%

    2 March, Monday

    Time Temperature Precipitation Wind Pressure Humidity
    00:00 +15°C° 0 mm 1 mps 593 mmHg 68%
    01:00 +15°C° 0 mm 1 mps 592 mmHg 68%
    02:00 +15°C° 0 mm 1 mps 592 mmHg 68%
    03:00 +14°C° 0 mm 1 mps 592 mmHg 69%
    04:00 +14°C° 0 mm 1 mps 592 mmHg 70%
    05:00 +14°C° 0 mm 1 mps 592 mmHg 70%
    06:00 +15°C° 0 mm 0 mps 593 mmHg 62%
    07:00 +18°C° 0 mm 0 mps 594 mmHg 54%
    08:00 +20°C° 0 mm 0 mps 596 mmHg 46%
    09:00 +24°C° 0 mm 1 mps 596 mmHg 40%
    10:00 +26°C° 0 mm 2 mps 597 mmHg 35%
    11:00 +27°C° 0 mm 3 mps 597 mmHg 29%
    12:00 +28°C° 0 mm 3 mps 596 mmHg 29%
    13:00 +28°C° 0 mm 4 mps 595 mmHg 28%
    14:00 +28°C° 0 mm 4 mps 594 mmHg 27%
    15:00 +27°C° 0 mm 4 mps 593 mmHg 30%
    16:00 +26°C° 0 mm 3 mps 593 mmHg 33%
    17:00 +24°C° 0 mm 3 mps 592 mmHg 35%
    18:00 +21°C° 0 mm 2 mps 592 mmHg 41%
    19:00 +19°C° 0 mm 2 mps 592 mmHg 48%
    20:00 +16°C° 0 mm 2 mps 591 mmHg 54%
    21:00 +16°C° 0 mm 1 mps 591 mmHg 56%
    22:00 +15°C° 0 mm 1 mps 591 mmHg 58%
    23:00 +15°C° 0 mm 1 mps 592 mmHg 60%
    Show more